This is the latest recevied weather packets stored in our database for station/object DG6YGE-6. If no packets are shown the sender has not sent any weather packets the latest 10 day(s).
| Time | Temp. | Humidity | Pressure | Rain* | Wind** | Luminosity | Snow |
|---|---|---|---|---|---|---|---|
| 1787885952 | 20.56° C | 90% | 1006.6 hPa | 0 mm | - | 0 W/m² | - |
| 1787885352 | 20.56° C | 90% | 1006.8 hPa | 0 mm | - | 0 W/m² | - |
| 1787884752 | 20.56° C | 90% | 1006.9 hPa | 0 mm | - | 0 W/m² | - |
| 1787884152 | 20.56° C | 90% | 1007 hPa | 0 mm | - | 0 W/m² | - |
| 1787883552 | 20.56° C | 90% | 1007.2 hPa | 0 mm | - | 0 W/m² | - |
| 1787882952 | 20.56° C | 90% | 1006.9 hPa | 0.25 mm | - | 0 W/m² | - |
| 1787882352 | 20.56° C | 90% | 1007 hPa | 0.51 mm | - | 0 W/m² | - |
| 1787881752 | 20.56° C | 90% | 1007.1 hPa | 2.29 mm | - | 0 W/m² | - |
| 1787881152 | 20.56° C | 90% | 1007.2 hPa | 4.83 mm | - | 0 W/m² | - |
| 1787880552 | 20.56° C | 90% | 1007.2 hPa | 4.83 mm | - | 0 W/m² | - |
| 1787879952 | 20.56° C | 90% | 1007.5 hPa | 4.83 mm | - | 0 W/m² | - |
| 1787879352 | 20.56° C | 90% | 1007.8 hPa | 4.57 mm | - | 0 W/m² | - |
| 1787878752 | 20.56° C | 90% | 1008.4 hPa | 4.32 mm | - | 0 W/m² | - |
| 1787878152 | 21.11° C | 86% | 1008.2 hPa | 2.29 mm | - | 0 W/m² | - |
| 1787877552 | 21.11° C | 83% | 1006.1 hPa | 0 mm | - | 0 W/m² | - |
| 1787876952 | 21.67° C | 81% | 1006 hPa | 0 mm | - | 0 W/m² | - |
| 1787876359 | 22.22° C | 80% | 1006 hPa | 0 mm | - | 0 W/m² | - |
| 1787875752 | 22.22° C | 78% | 1006.1 hPa | 0 mm | - | 0 W/m² | - |
| 1787875152 | 22.78° C | 76% | 1006.3 hPa | 0 mm | - | 0 W/m² | - |
| 1787874551 | 23.33° C | 73% | 1006.5 hPa | 0 mm | - | 0 W/m² | - |
| 1787873952 | 23.33° C | 71% | 1006.7 hPa | 0 mm | - | 0 W/m² | - |
| 1787873352 | 23.33° C | 71% | 1006.8 hPa | 0 mm | - | 0 W/m² | - |
| 1787872752 | 23.33° C | 71% | 1007 hPa | 0 mm | - | 0 W/m² | - |
| 1787872151 | 23.33° C | 71% | 1007.4 hPa | 0 mm | - | 0 W/m² | - |
| 1787871552 | 23.33° C | 71% | 1007.2 hPa | 0 mm | - | 0 W/m² | - |
* Rain latest hour (hover to see other rain measurements)
** Current wind speed in m/s (hover to see current wind gust speed)